[[{"header":{"parameterUnit":"m.s-1","parameterCategory":1,"la1":30.2991,"la2":30.254,"lo1":-89.0895,"lo2":-89.0444,"dy":0.0017,"dx":0.0017,"nx":28,"ny":28,"refTime":"2024-02-25T09:00:00:Z","depth":0,"parameterNumber":2,"parameterNumberName":"U-component_of_WINDS"},"data":[0,0,0,0,0,0,0,0,0,0,0,0,0,0,0,0,0,0,0,0,0,0,0,0,0,0,0,0,0,0,0,0,0,0,0,0,0,0,0,0,0,0,0,0,0,0,0,0,0,0,0,0,0,0,0,0,0,0,-1.6222,-1.6223,0,-1.6303,-1.6304,-1.6305,-1.6316,-1.6316,-1.6315,-1.6314,-1.64,-1.6403,-1.6406,0,0,0,0,0,0,0,0,0,0,0,0,0,-1.608,-1.6082,-1.6222,-1.6223,-1.6224,-1.6303,-1.6304,-1.6305,-1.6316,-1.6316,-1.6315,-1.6314,-1.6399,-1.6403,-1.6407,0,0,0,0,0,0,0,0,0,0,0,0,0,-1.6149,-1.6083,-1.6222,-1.6239,-1.6241,-1.6303,-1.6304,-1.6305,-1.6317,-1.6315,-1.6314,-1.6313,-1.6398,-1.6403,-1.6407,-1.6458,0,0,-1.6421,-1.6423,0,0,0,0,0,0,0,0,-1.6145,-1.6154,-1.6236,-1.6238,-1.6241,-1.6298,-1.6285,-1.6357,-1.6317,-1.6288,-1.6314,-1.6313,-1.6368,-1.6375,-1.6392,-1.6462,-1.6465,-1.6421,-1.6424,-1.6426,-1.6427,0,0,0,0,0,0,0,-1.614,-1.6151,-1.6254,-1.6237,-1.624,-1.6244,-1.6252,-1.6299,-1.6333,-1.6291,-1.6292,-1.6301,-1.6369,-1.6388,-1.6394,-1.6467,-1.6421,-1.6425,-1.6428,-1.643,-1.658,-1.6582,0,0,0,0,0,0,-1.6132,-1.6147,-1.6252,-1.6257,-1.6189,-1.6247,-1.6257,-1.6281,-1.6333,-1.634,-1.6302,-1.6301,-1.6381,-1.6389,-1.6398,-1.6459,-1.6426,-1.643,-1.6433,-1.6579,-1.6581,-1.6582,0,0,0,0,0,0,-1.6129,-1.6141,-1.6248,-1.6202,-1.6216,-1.6251,-1.6278,-1.6283,-1.6302,-1.6341,-1.6348,-1.6315,-1.638,-1.6391,-1.6442,-1.6462,-1.6432,-1.6436,-1.6577,-1.658,-1.6581,-1.6583,0,0,0,0,0,0,-1.6125,-1.614,-1.6159,-1.6202,-1.6218,-1.6291,-1.6279,-1.6286,-1.631,-1.631,-1.6355,-1.6362,-1.638,-1.6435,-1.6446,-1.6468,-1.644,-1.6576,-1.6578,-1.6581,-1.6581,-1.6584,-1.6587,0,0,0,0,0,-1.612,-1.6157,-1.616,-1.6173,-1.6243,-1.6292,-1.6301,-1.632,-1.6311,-1.6331,-1.6356,-1.636,-1.6458,-1.644,-1.6453,-1.6476,-1.6575,-1.6578,-1.658,-1.6579,-1.6584,-1.6587,0,0,0,0,0,0,-1.6117,-1.6163,-1.6167,-1.6219,-1.6251,-1.6294,-1.6319,-1.6325,-1.6361,-1.6359,-1.6383,-1.6393,-1.6443,-1.6465,-1.6444,-1.6527,-1.6516,-1.6521,-1.6511,-1.6515,-1.6518,-1.6511,-1.6443,0,0,0,0,0,-1.6122,-1.6157,-1.6196,-1.6239,-1.6255,-1.6284,-1.6306,-1.6318,-1.6353,-1.6367,-1.6396,-1.643,-1.6468,-1.6493,-1.6531,-1.6585,-1.6594,-1.6607,-1.661,-1.6612,-1.6616,-1.6645,-1.6651,-1.6592,-1.6592,-1.6592,0,0,-1.6134,-1.6164,-1.6185,-1.6239,-1.6266,-1.6302,-1.6295,-1.6335,-1.6362,-1.6373,-1.6422,-1.6444,-1.6484,-1.6536,-1.6561,-1.6556,-1.6635,-1.6616,-1.6617,-1.6621,-1.6649,-1.6654,-1.6659,-1.6594,-1.6593,-1.6593,0,0,-1.6174,-1.62,-1.6238,-1.6263,-1.6303,-1.6322,-1.6331,-1.6372,-1.6386,-1.6436,-1.6445,-1.6478,-1.6544,-1.6571,-1.6594,-1.6643,-1.6648,-1.6655,-1.6671,-1.6699,-1.6704,-1.6708,-1.6724,-1.673,-1.6659,-1.6659,-1.6659,0,-1.6184,-1.6238,-1.6257,-1.6294,-1.6318,-1.6329,-1.6367,-1.6392,-1.6442,-1.6458,-1.6452,-1.6534,-1.6562,-1.6619,-1.6631,-1.665,-1.666,-1.6649,-1.6701,-1.6706,-1.671,-1.6726,-1.6732,-1.666,-1.666,-1.6659,-1.6659,0,-1.6247,-1.6284,-1.631,-1.6356,-1.6383,-1.6421,-1.6446,-1.6471,-1.6481,-1.65,-1.655,-1.6584,-1.6627,-1.6642,-1.6653,-1.6702,-1.6697,-1.6696,-1.6685,-1.6716,-1.6731,-1.6737,-1.666,-1.666,-1.666,-1.666,0,0,-1.6288,-1.6342,-1.6351,-1.6371,-1.6415,-1.6445,-1.6483,-1.6524,-1.6545,-1.6579,-1.6612,-1.6667,-1.6665,-1.6691,-1.6705,-1.6729,-1.6764,-1.6725,-1.6726,-1.673,-1.6819,-1.6818,-1.6825,-1.6768,-1.677,-1.6771,-1.6815,0,-1.6331,-1.6398,-1.6416,-1.6473,-1.6507,-1.6518,-1.6551,-1.6582,-1.6601,-1.6634,-1.6656,-1.6694,-1.669,-1.6705,-1.673,-1.6755,-1.6782,-1.6752,-1.6799,-1.68,-1.6787,-1.6833,-1.6833,-1.6873,-1.6821,-1.6822,-1.6823,0,-1.6391,-1.6424,-1.6484,-1.6521,-1.6536,-1.6566,-1.6604,-1.6636,-1.6671,-1.6683,-1.6711,-1.6722,-1.6763,-1.675,-1.6807,-1.6786,-1.6806,-1.6821,-1.6823,-1.6828,-1.6812,-1.6837,-1.6887,-1.6892,-1.6833,-1.6832,-1.6831,0,-1.6412,-1.6472,-1.6515,-1.6532,-1.6578,-1.6598,-1.6618,-1.6652,-1.6675,-1.671,-1.6725,-1.6764,-1.6786,-1.6816,-1.6838,-1.6827,-1.6893,-1.6882,-1.6904,-1.6903,-1.6916,-1.6915,-1.6968,-1.6932,-1.6932,-1.6931,-1.6931,0,-1.6458,-1.6494,-1.6525,-1.6551,-1.6592,-1.6613,-1.6653,-1.6673,-1.6703,-1.6734,-1.6747,-1.6776,-1.6803,-1.6836,-1.6854,-1.6898,-1.6908,-1.6919,-1.6923,-1.6917,-1.6915,-1.693,-1.6927,-1.6933,-1.6933,-1.6932,-1.6932,0,-1.6488,-1.651,-1.6558,-1.6596,-1.6607,-1.6635,-1.6668,-1.6695,-1.6714,-1.6753,-1.6764,-1.6795,-1.6835,-1.6859,-1.691,-1.6922,-1.6969,-1.6973,-1.6957,-1.6958,-1.6978,-1.6976,-1.7042,-1.7051,-1.7009,-1.701,-1.701,0,-1.6515,-1.6543,-1.6583,-1.6604,-1.6624,-1.6658,-1.6681,-1.6703,-1.6727,-1.6768,-1.6789,-1.6829,-1.6862,-1.6924,-1.6952,-1.6991,-1.6995,-1.7016,-1.7001,-1.6994,-1.6994,-1.6991,-1.6994,-1.7018,-1.7018,-1.7018,-1.7019,0,-1.656,-1.657,-1.6602,-1.6638,-1.6665,-1.6694,-1.6724,-1.6741,-1.6768,-1.6794,-1.6834,-1.6859,-1.691,-1.6949,-1.699,-1.7012,-1.702,-1.7023,-1.703,-1.7023,-1.7012,-1.7017,-1.6962,-1.7021,-1.7021,-1.7021,-1.7021,-1.7021,-1.6589,-1.6614,-1.6645,-1.6681,-1.6705,-1.6732,-1.6758,-1.678,-1.6813,-1.6855,-1.6866,-1.6907,-1.6941,-1.6996,-1.7019,-1.7052,-1.7049,-1.706,-1.7062,-1.7064,-1.7063,-1.7008,-1.706,-1.706,-1.706,-1.706,-1.706,0,-1.6634,-1.6654,-1.6687,-1.6727,-1.6754,-1.6758,-1.6791,-1.6814,-1.6849,-1.688,-1.6911,-1.6956,-1.6994,-1.7025,-1.7064,-1.7084,-1.7089,-1.7094,-1.7092,-1.7097,-1.7064,-1.7054,-1.7089,-1.7089,-1.7089,-1.7089,-1.7089,-1.7089,-1.666,-1.6701,-1.6714,-1.6767,-1.6788,-1.6826,-1.6845,-1.687,-1.6894,-1.6943,-1.6974,-1.6993,-1.7023,-1.7065,-1.71,-1.7108,-1.7121,-1.7125,-1.7134,-1.7103,-1.7099,-1.7096,-1.7086,-1.7128,-1.7128,-1.7163,-1.7164,-1.7164]},{"header":{"parameterUnit":"m.s-1","parameterCategory":1,"la1":30.2991,"la2":30.254,"lo1":-89.0895,"lo2":-89.0444,"dy":0.0017,"dx":0.0017,"nx":28,"ny":28,"refTime":"2024-02-25T09:00:00:Z","depth":0,"parameterNumber":3,"parameterNumberName":"V-component_of_WINDS"},"data":[0,0,0,0,0,0,0,0,0,0,0,0,0,0,0,0,0,0,0,0,0,0,0,0,0,0,0,0,0,0,0,0,0,0,0,0,0,0,0,0,0,0,0,0,0,0,0,0,0,0,0,0,0,0,0,0,0,0,1.7063,1.7065,0,1.7217,1.7219,1.722,1.725,1.7249,1.7248,1.7247,1.7404,1.7409,1.7414,0,0,0,0,0,0,0,0,0,0,0,0,0,1.6794,1.6799,1.7063,1.7065,1.7067,1.7217,1.7219,1.7221,1.725,1.7249,1.7247,1.7246,1.7402,1.7408,1.7414,0,0,0,0,0,0,0,0,0,0,0,0,0,1.6926,1.68,1.7062,1.7099,1.7104,1.7216,1.7219,1.7221,1.7251,1.7249,1.7247,1.7245,1.74,1.7407,1.7415,1.7501,0,0,1.744,1.7443,0,0,0,0,0,0,0,0,1.6918,1.6935,1.7092,1.7097,1.7103,1.7212,1.7182,1.7315,1.7251,1.7195,1.7246,1.7244,1.7341,1.7354,1.7387,1.7508,1.7515,1.744,1.7445,1.7449,1.7451,0,0,0,0,0,0,0,1.6909,1.6929,1.7124,1.7094,1.7101,1.7108,1.7125,1.7207,1.7277,1.72,1.7202,1.722,1.7344,1.7379,1.7391,1.7517,1.744,1.7447,1.7452,1.7455,1.7718,1.772,0,0,0,0,0,0,1.6893,1.6921,1.7119,1.7128,1.7004,1.7115,1.7133,1.7179,1.7276,1.7289,1.7222,1.7221,1.7366,1.7381,1.7396,1.7505,1.7449,1.7456,1.7461,1.7716,1.7719,1.7721,0,0,0,0,0,0,1.6887,1.6911,1.7113,1.7026,1.7052,1.7121,1.7172,1.7183,1.7218,1.7292,1.7305,1.7245,1.7366,1.7385,1.7475,1.7511,1.746,1.7467,1.7714,1.7717,1.772,1.7721,0,0,0,0,0,0,1.688,1.6908,1.6942,1.7026,1.7056,1.7189,1.7175,1.7187,1.7232,1.7233,1.7317,1.733,1.7366,1.7463,1.7483,1.7521,1.7473,1.7711,1.7715,1.7719,1.7718,1.7724,1.7729,0,0,0,0,0,1.687,1.6935,1.6943,1.6967,1.71,1.7191,1.7208,1.7249,1.7235,1.7269,1.7317,1.7327,1.7503,1.7472,1.7495,1.7535,1.7709,1.7714,1.7719,1.7716,1.7723,1.7729,0,0,0,0,0,0,1.6853,1.6947,1.6957,1.7052,1.7113,1.7196,1.724,1.7255,1.7321,1.7319,1.7366,1.7385,1.7472,1.7512,1.7476,1.7624,1.7605,1.7615,1.7595,1.7602,1.7607,1.7597,1.748,0,0,0,0,0,1.6861,1.6927,1.7005,1.7081,1.7112,1.7171,1.7212,1.7238,1.7303,1.7329,1.7383,1.7446,1.7516,1.7561,1.7629,1.7723,1.7743,1.7762,1.7767,1.7771,1.778,1.7834,1.7844,1.7737,1.7737,1.7737,0,0,1.6877,1.6936,1.6975,1.708,1.713,1.7198,1.7192,1.7264,1.7316,1.734,1.7429,1.7471,1.7544,1.7637,1.7681,1.7673,1.7813,1.7778,1.778,1.7787,1.784,1.785,1.7859,1.7741,1.774,1.774,0,0,1.6941,1.6992,1.7062,1.7113,1.719,1.7228,1.7245,1.7326,1.7355,1.7444,1.7465,1.7526,1.7644,1.7696,1.7738,1.7822,1.7835,1.7843,1.7871,1.7924,1.7932,1.794,1.7972,1.7982,1.785,1.785,1.785,0,1.6951,1.7055,1.7096,1.7168,1.7213,1.7239,1.731,1.7357,1.7452,1.7483,1.7473,1.7624,1.7675,1.7781,1.7801,1.7834,1.7855,1.7834,1.7928,1.7936,1.7944,1.7974,1.7986,1.7851,1.7851,1.7851,1.7851,0,1.7065,1.7136,1.7183,1.7275,1.7326,1.7397,1.7449,1.7495,1.7516,1.7556,1.7647,1.7709,1.7791,1.7817,1.7838,1.7927,1.792,1.7918,1.7901,1.7954,1.7984,1.7996,1.7852,1.7852,1.7852,1.7851,0,0,1.7125,1.7238,1.7255,1.7297,1.7384,1.744,1.7512,1.7592,1.7632,1.7696,1.7758,1.7858,1.7857,1.7905,1.7931,1.7977,1.8042,1.797,1.7972,1.7983,1.8145,1.8147,1.816,1.8049,1.8052,1.8054,1.8139,0,1.7201,1.7331,1.737,1.748,1.7547,1.7572,1.7635,1.7694,1.7733,1.7796,1.7838,1.7909,1.7901,1.7931,1.7977,1.8024,1.8075,1.8018,1.8109,1.8112,1.8092,1.8175,1.8178,1.8256,1.8151,1.8153,1.8154,0,1.7308,1.7375,1.7492,1.757,1.76,1.7656,1.7733,1.7792,1.7861,1.7886,1.7939,1.7962,1.8038,1.8014,1.8121,1.8081,1.812,1.8149,1.8153,1.8165,1.8138,1.8191,1.8282,1.8294,1.8173,1.8171,1.817,0,1.7343,1.7462,1.7547,1.7582,1.7676,1.7715,1.7756,1.7822,1.7868,1.7935,1.7965,1.804,1.8081,1.8138,1.8181,1.8159,1.8284,1.8264,1.8308,1.8307,1.8335,1.8333,1.8435,1.8357,1.8357,1.8356,1.8356,0,1.7426,1.7496,1.7564,1.7617,1.7697,1.7741,1.7819,1.786,1.7919,1.7981,1.8005,1.8063,1.8114,1.8178,1.8212,1.8296,1.8314,1.8337,1.8345,1.8336,1.8333,1.8364,1.836,1.8359,1.8359,1.8358,1.8358,0,1.7479,1.7527,1.7622,1.7703,1.7724,1.778,1.7849,1.7902,1.794,1.8018,1.8039,1.81,1.8177,1.8225,1.8322,1.8344,1.8437,1.8442,1.8415,1.8419,1.8461,1.8458,1.8589,1.8609,1.8514,1.8515,1.8516,0,1.753,1.7585,1.7671,1.7715,1.7756,1.7825,1.7872,1.7916,1.7964,1.8046,1.8089,1.8167,1.8233,1.8354,1.8407,1.8482,1.8491,1.8531,1.8502,1.8491,1.8494,1.8491,1.8497,1.8537,1.8538,1.8538,1.8539,0,1.7616,1.7637,1.7704,1.778,1.7836,1.7897,1.7959,1.7992,1.8047,1.81,1.8179,1.8229,1.8329,1.8407,1.8486,1.8528,1.8543,1.8547,1.8562,1.8554,1.8537,1.8549,1.843,1.8545,1.8544,1.8544,1.8543,1.8543,1.7671,1.7722,1.7791,1.7865,1.7916,1.7973,1.8027,1.8072,1.8139,1.8224,1.8245,1.8329,1.8396,1.8504,1.8547,1.8613,1.8607,1.8627,1.8633,1.8638,1.864,1.8524,1.8627,1.8627,1.8627,1.8626,1.8626,0,1.776,1.7806,1.7873,1.7959,1.8018,1.8026,1.8094,1.8143,1.8216,1.8277,1.8341,1.8432,1.8507,1.8566,1.8644,1.8685,1.8694,1.8704,1.8703,1.8713,1.864,1.862,1.8696,1.8696,1.8696,1.8696,1.8696,1.8696,1.7814,1.7901,1.793,1.8042,1.8087,1.8169,1.8208,1.826,1.831,1.841,1.8473,1.8511,1.8572,1.8654,1.8724,1.8739,1.8768,1.8777,1.8794,1.8725,1.8718,1.871,1.8693,1.8782,1.8782,1.8862,1.8862,1.8863]}]]